TimeCST,TemperatureF,Dew PointF,Humidity,Sea Level PressureIn,VisibilityMPH,Wind Direction,Wind SpeedMPH,Gust SpeedMPH,PrecipitationIn,Events,Conditions,WindDirDegrees,DateUTC
12:53 AM,32.0,26.1,79,30.10,10.0,SE,4.6,-,N/A,,Clear,140,2013-02-06 06:53:00
1:53 AM,30.0,25.0,82,30.09,10.0,SE,4.6,-,N/A,,Clear,130,2013-02-06 07:53:00
2:53 AM,30.9,26.1,82,30.09,10.0,SSE,5.8,-,N/A,,Clear,150,2013-02-06 08:53:00
3:53 AM,28.9,24.1,82,30.07,10.0,SE,3.5,-,N/A,,Clear,130,2013-02-06 09:53:00
4:53 AM,28.9,25.0,85,30.06,10.0,SE,5.8,-,N/A,,Clear,130,2013-02-06 10:53:00
5:53 AM,28.9,24.1,82,30.06,10.0,ESE,5.8,-,N/A,,Clear,120,2013-02-06 11:53:00
6:53 AM,30.0,26.1,85,30.07,10.0,Calm,Calm,-,N/A,,Clear,0,2013-02-06 12:53:00
7:53 AM,30.0,26.1,85,30.06,10.0,SSE,6.9,-,N/A,,Clear,150,2013-02-06 13:53:00
8:53 AM,37.0,28.9,73,30.06,10.0,SSE,11.5,-,N/A,,Clear,160,2013-02-06 14:53:00
9:53 AM,43.0,30.0,60,30.05,10.0,South,12.7,-,N/A,,Clear,170,2013-02-06 15:53:00
10:53 AM,48.9,30.0,48,30.02,10.0,SSE,15.0,-,N/A,,Clear,160,2013-02-06 16:53:00
11:53 AM,51.1,30.9,46,30.00,10.0,South,10.4,-,N/A,,Clear,170,2013-02-06 17:53:00
12:53 PM,57.9,34.0,41,29.95,10.0,SSE,13.8,20.7,N/A,,Partly Cloudy,160,2013-02-06 18:53:00
1:53 PM,60.1,32.0,35,29.90,10.0,SSE,18.4,-,N/A,,Clear,150,2013-02-06 19:53:00
2:53 PM,61.0,35.1,38,29.87,10.0,South,16.1,23.0,N/A,,Mostly Cloudy,170,2013-02-06 20:53:00
3:53 PM,62.1,37.0,39,29.85,10.0,SSE,17.3,20.7,N/A,,Clear,160,2013-02-06 21:53:00
4:53 PM,59.0,39.9,49,29.85,10.0,South,11.5,-,N/A,,Overcast,170,2013-02-06 22:53:00
5:53 PM,55.0,41.0,59,29.86,10.0,SSE,9.2,-,N/A,,Overcast,150,2013-02-06 23:53:00
6:53 PM,53.1,41.0,64,29.86,10.0,ESE,6.9,-,N/A,,Overcast,110,2013-02-07 00:53:00
7:53 PM,52.0,39.9,63,29.87,10.0,ESE,6.9,-,N/A,,Overcast,120,2013-02-07 01:53:00
8:53 PM,52.0,39.9,63,29.86,10.0,SE,6.9,-,N/A,,Overcast,130,2013-02-07 02:53:00
9:53 PM,48.9,41.0,74,29.86,10.0,SSE,5.8,-,0.00,,Overcast,150,2013-02-07 03:53:00
10:53 PM,46.9,43.0,86,29.88,4.0,Calm,Calm,-,0.04,Rain,Light Rain,0,2013-02-07 04:53:00
11:53 PM,46.9,44.1,90,29.88,10.0,SE,3.5,-,0.00,,Overcast,130,2013-02-07 05:53:00